Weather History for LTBA - April, 2013

Change the Weather History Date:

Monday, April 22, 2013

  Actual Average Record
Temperature  
Mean Temperature 53 °F -  
Max Temperature 63 °F 66 °F 84 °F (2008)
Min Temperature 43 °F 52 °F 39 °F (2003)
Degree Days  
Heating Degree Days 12    
Growing Degree Days 3 (Base 50)    
Moisture  
Dew Point 44 °F    
Average Humidity 72    
Maximum Humidity 93    
Minimum Humidity 48    
Precipitation  
Precipitation 0.00 in - - ()
Sea Level Pressure  
Sea Level Pressure 30.06 in    
Wind  
Wind Speed 6 mph ()    
Max Wind Speed 16 mph    
Max Gust Speed -    
Visibility 6.1 miles    
Events      
Averages and records for this station are not official NWS values.
T = Trace of Precipitation, MM = Missing Value Source: Averaged Metar Reports

Daily Weather History Graph

Daily Weather History Graph

Search for Another Location

Airport or City:

Trip Planner

Search our weather history database for the weather conditions in past years. The results will help you decide how hot, cold, wet, or windy it might be!

Date:

Astronomy

Apr. 22, 2013 Rise Set
Actual Time 6:15 AM EEST 7:51 PM EEST
Civil Twilight 5:46 AM EEST 8:20 PM EEST
Nautical Twilight 5:11 AM EEST 8:56 PM EEST
Astronomical Twilight 4:33 AM EEST 9:33 PM EEST
Moon 4:18 PM EEST (4/22) 4:00 AM EEST (4/22)
Length of Visible Light 14h 34m
Length of Day
13h 36m
Waxing Gibbous, 85% of the Moon is Illuminated
Apr 22
Waxing Gibbous
Apr 25
Full
May 2
Last Quarter
May 10
New
May 18
First Quarter

Hourly Weather History & Observations

Time (EEST) Temp. Windchill Dew Point Humidity Pressure Visibility Wind Dir Wind Speed Gust Speed Precip Events Conditions
12:20 AM 50.0 °F - 42.8 °F 76% 30.01 in - North 6.9 mph - N/A   Clear
12:50 AM 48.2 °F - 42.8 °F 82% 30.01 in - NNW 8.1 mph - N/A   Clear
1:20 AM 50.0 °F - 44.6 °F 82% 30.01 in - NNW 6.9 mph - N/A   Clear
1:50 AM 48.2 °F - 42.8 °F 82% 30.01 in - North 9.2 mph - N/A   Clear
2:20 AM 46.4 °F 42.9 °F 42.8 °F 87% 29.98 in - NNW 6.9 mph - N/A   Clear
2:50 AM 46.4 °F 44.3 °F 42.8 °F 87% 29.98 in - NNW 4.6 mph - N/A   Clear
3:00 AM 46 °F - 43 °F 84% 30.01 in 6 mi NNW 4.6 mph - -  
3:20 AM 46.4 °F 44.3 °F 42.8 °F 87% 29.98 in - NNW 4.6 mph - N/A   Clear
3:50 AM 44.6 °F 41.4 °F 42.8 °F 93% 30.01 in - NNW 5.8 mph - N/A   Clear
4:20 AM 46.4 °F - 42.8 °F 87% 30.01 in - Calm Calm - N/A   Clear
4:50 AM 44.6 °F - 41.0 °F 87% 30.01 in - SSW 2.3 mph - N/A   Clear
5:20 AM 46.4 °F - 44.6 °F 93% 30.01 in - Variable 2.3 mph - N/A   Clear
5:50 AM 46.4 °F 44.3 °F 42.8 °F 87% 30.01 in - WNW 4.6 mph - N/A   Clear
6:20 AM 44.6 °F 42.2 °F 42.8 °F 93% 30.01 in - North 4.6 mph - N/A   Clear
6:50 AM 48.2 °F - 44.6 °F 87% 30.01 in - Variable 2.3 mph - N/A   Clear
7:20 AM 48.2 °F - 44.6 °F 87% 30.04 in 6.2 mi West 5.8 mph - N/A   Partly Cloudy
7:50 AM 50.0 °F - 44.6 °F 82% 30.04 in 6.2 mi NW 4.6 mph - N/A   Scattered Clouds
8:20 AM 51.8 °F - 46.4 °F 82% 30.04 in 6.2 mi NNW 3.5 mph - N/A   Scattered Clouds
8:50 AM 51.8 °F - 46.4 °F 82% 30.04 in 6.2 mi NW 4.6 mph - N/A   Scattered Clouds
9:00 AM 52 °F - 46 °F 71% 30.06 in 6 mi NW 4.6 mph - -   Mostly Cloudy
9:20 AM 53.6 °F - 46.4 °F 77% 30.06 in 5.0 mi Variable 4.6 mph - N/A   Mostly Cloudy
9:50 AM 53.6 °F - 46.4 °F 77% 30.06 in 6.2 mi NNE 4.6 mph - N/A   Mostly Cloudy
10:20 AM 55.4 °F - 48.2 °F 77% 30.06 in 6.2 mi ENE 3.5 mph - N/A   Scattered Clouds
10:50 AM 53.6 °F - 44.6 °F 72% 30.06 in 6.2 mi SE 4.6 mph - N/A   Scattered Clouds
11:20 AM 55.4 °F - 48.2 °F 77% 30.06 in 6.2 mi South 5.8 mph - N/A   Scattered Clouds
11:50 AM 55.4 °F - 48.2 °F 77% 30.06 in 6.2 mi SW 8.1 mph - N/A   Scattered Clouds
12:20 PM 53.6 °F - 46.4 °F 77% 30.09 in 6.2 mi SW 8.1 mph - N/A   Mostly Cloudy
12:50 PM 55.4 °F - 48.2 °F 77% 30.09 in 6.2 mi SW 5.8 mph - N/A   Scattered Clouds
1:20 PM 59.0 °F - 50.0 °F 72% 30.09 in 6.2 mi SW 5.8 mph - N/A   Scattered Clouds
1:50 PM 57.2 °F - 48.2 °F 72% 30.06 in 6.2 mi SW 9.2 mph - N/A   Mostly Cloudy
2:20 PM 59.0 °F - 48.2 °F 67% 30.06 in 6.2 mi Variable 4.6 mph - N/A   Mostly Cloudy
2:50 PM 62.6 °F - 46.4 °F 55% 30.06 in 6.2 mi NNW 11.5 mph - N/A   Partly Cloudy
3:00 PM 62 °F - 50 °F 54% 30.08 in 6 mi NNW 11.5 mph - -   Scattered Clouds
3:20 PM 64.4 °F - 48.2 °F 56% 30.06 in 6.2 mi Variable 8.1 mph - N/A   Partly Cloudy
3:50 PM 60.8 °F - 46.4 °F 59% 30.06 in 6.2 mi Variable 6.9 mph - N/A   Mostly Cloudy
4:20 PM 62.6 °F - 44.6 °F 52% 30.06 in 6.2 mi NNE 16.1 mph - N/A   Scattered Clouds
4:50 PM 62.6 °F - 42.8 °F 48% 30.06 in 6.2 mi NNE 13.8 mph - N/A   Partly Cloudy
5:20 PM 60.8 °F - 41.0 °F 48% 30.09 in 6.2 mi NNE 15.0 mph - N/A   Partly Cloudy
5:50 PM 60.8 °F - 41.0 °F 48% 30.09 in - NNE 11.5 mph - N/A   Clear
6:20 PM 59.0 °F - 41.0 °F 51% 30.09 in - NNE 12.7 mph - N/A   Clear
6:50 PM 57.2 °F - 42.8 °F 59% 30.09 in - NNE 11.5 mph - N/A   Clear
7:20 PM 57.2 °F - 41.0 °F 55% 30.09 in - NE 9.2 mph - N/A   Clear
7:50 PM 57.2 °F - 41.0 °F 55% 30.09 in - NE 12.7 mph - N/A   Clear
8:20 PM 57.2 °F - 42.8 °F 59% 30.09 in - Variable 9.2 mph - N/A   Clear
8:50 PM 55.4 °F - 42.8 °F 63% 30.12 in - Variable 10.4 mph - N/A   Clear
9:00 PM 55 °F - 43 °F 53% 30.14 in 6 mi NNE 10.4 mph - -  
9:20 PM 53.6 °F - 42.8 °F 67% 30.15 in - NNE 6.9 mph - N/A   Clear
9:50 PM 51.8 °F - 42.8 °F 71% 30.15 in - NE 6.9 mph - N/A   Clear
10:20 PM 51.8 °F - 42.8 °F 71% 30.15 in - NE 8.1 mph - N/A   Clear
10:50 PM 51.8 °F - 42.8 °F 71% 30.15 in - NE 8.1 mph - N/A   Clear
11:20 PM 51.8 °F - 42.8 °F 71% 30.15 in - ENE 6.9 mph - N/A   Clear
11:50 PM 50.0 °F - 42.8 °F 76% 30.15 in - NE 6.9 mph - N/A   Clear